Terminal Aerodrome Forecast
Issued by NWS

Home | Current Version | Previous Version | Text Only | Print | Product List | Glossary On
Versions: 1 2 3 4 5 6 7 8 9 10 11 12 13 14 15 16 17 18 19 20 21 22 23 24 25 26 27 28 29 30 31 32 33 34 35 36 37 38 39 40 41 42 43 44 45 46 47 48 49 50
000
FTUS43 KMKX 281140
TAFUES
TAF
KUES 281140Z 2812/2912 14005KT P6SM SCT030 OVC050
     FM281300 16004KT 5SM -SN BKN030
     FM281500 18009KT P6SM OVC030
     FM282300 17007KT P6SM OVC010=

USA.gov is the U.S. government's official web portal to all federal, state and local government web resources and services.